Location: *
(0.1100°N, 5.5000°E)
Time: 10:25:53
(UTC+00:00)

Cosmos 2100 Rocket - Pass Details

Date: 07 December 2022
Orbit: 955 x 1001 km, 82.9° (Epoch: 07 February)

Event Time Altitude Azimuth Distance (km) Brightness Sun altitude
Rises 18:59:35 0° 171° (S) 3,701 7.2 -20.7°
Reaches altitude 10° 19:02:12 10° 165° (SSE) 2,756 6.5 -21.3°
Maximum altitude 19:08:14 46° 93° (E) 1,310 4.2 -22.7°
Enters shadow 19:08:56 44° 74° (ENE) 1,340 4.2 -22.8°
